Weather History for Moriarty, NM

Change the Weather History Date:

Tuesday, December 31, 2013

  Actual Average (KABQ) Record (KABQ)
Temperature  
Mean Temperature 30 °F 35 °F  
Max Temperature 51 °F 45 °F 64 °F (1917)
Min Temperature 10 °F 26 °F -2 °F (1911)
Degree Days  
Heating Degree Days 34 30  
Month to date heating degree days 891  
Since 1 July heating degree days 1757  
Cooling Degree Days 0 0  
Month to date cooling degree days 0  
Year to date cooling degree days 1322  
Moisture  
Dew Point 13 °F    
Average Humidity 58    
Maximum Humidity 89    
Minimum Humidity 22    
Precipitation  
Precipitation 0.00 in 0.01 in 0.25 in (1959)
Month to date precipitation 0.50  
Year to date precipitation 9.45  
Snow  
Snow 0.00 in - - ()
Month to date snowfall  
Since 1 July snowfall  
Snow Depth -    
Sea Level Pressure  
Sea Level Pressure 30.24 in    
Wind  
Wind Speed 5 mph (WNW)    
Max Wind Speed 13 mph    
Max Gust Speed 17 mph    
Visibility 10 miles    
Events      
T = Trace of Precipitation, MM = Missing Value Source: NWS Daily Summary

Daily Weather History Graph

Daily Weather History Graph

Search for Another Location

Airport:

Trip Planner

Search our weather history database for the weather conditions in past years. The results will help you decide how hot, cold, wet, or windy it might be!

Date:

Astronomy

Dec. 31, 2013 Rise Set
Actual Time 7:11 AM MST 5:02 PM MST
Civil Twilight 6:43 AM MST 5:30 PM MST
Nautical Twilight 6:12 AM MST 6:02 PM MST
Astronomical Twilight 5:41 AM MST 6:33 PM MST
Moon 6:09 AM MST (12/31) 4:40 PM MST (12/31)
Length of Visible Light 10h 47m
Length of Day
9h 50m
Waning Crescent, 1% of the Moon is Illuminated
Dec 31
Waning Crescent
Jan 1
New
Jan 7
First Quarter
Jan 15
Full
Jan 23
Last Quarter

Hourly Weather History & Observations

Time (MST) Temp. Windchill Dew Point Humidity Pressure Visibility Wind Dir Wind Speed Gust Speed Precip Events Conditions
12:15 AM 14.0 °F 5.1 °F 10.6 °F 86% 30.35 in 10.0 mi NNE 5.8 mph - N/A   Clear
12:35 AM 14.7 °F 5.9 °F 11.1 °F 86% 30.34 in 10.0 mi NNE 5.8 mph - N/A   Clear
12:55 AM 14.5 °F 7.1 °F 10.8 °F 85% 30.34 in 10.0 mi North 4.6 mph - N/A   Clear
1:15 AM 12.7 °F 6.7 °F 9.3 °F 86% 30.34 in 10.0 mi NNW 3.5 mph - N/A   Clear
1:35 AM 12.9 °F 3.8 °F 9.7 °F 87% 30.34 in 10.0 mi NW 5.8 mph - N/A   Clear
1:55 AM 12.7 °F 6.7 °F 9.7 °F 88% 30.34 in 10.0 mi North 3.5 mph - N/A   Clear
2:15 AM 12.6 °F 4.8 °F 9.7 °F 88% 30.33 in 10.0 mi North 4.6 mph - N/A   Clear
2:35 AM 12.7 °F - 9.9 °F 88% 30.33 in 10.0 mi Calm Calm - N/A   Clear
2:55 AM 11.1 °F 4.9 °F 8.2 °F 88% 30.32 in 10.0 mi North 3.5 mph - N/A   Clear
3:15 AM 12.0 °F - 8.8 °F 87% 30.31 in 10.0 mi Calm Calm - N/A   Clear
3:35 AM 11.3 °F 5.1 °F 8.2 °F 87% 30.31 in 10.0 mi North 3.5 mph - N/A   Clear
3:55 AM 10.4 °F 4.0 °F 7.7 °F 89% 30.31 in 10.0 mi NNE 3.5 mph - N/A   Clear
4:15 AM 10.6 °F - 7.7 °F 88% 30.30 in 10.0 mi Calm Calm - N/A   Clear
4:35 AM 12.0 °F - 9.1 °F 88% 30.29 in 10.0 mi Calm Calm - N/A   Clear
4:55 AM 13.1 °F - 9.1 °F 84% 30.29 in 10.0 mi Calm Calm - N/A   Clear
5:15 AM 10.9 °F - 7.9 °F 87% 30.29 in 10.0 mi Calm Calm - N/A   Clear
5:35 AM 10.2 °F -0.6 °F 7.5 °F 89% 30.29 in 10.0 mi North 6.9 mph - N/A   Clear
5:55 AM 10.9 °F 1.4 °F 7.7 °F 87% 30.30 in 10.0 mi North 5.8 mph - N/A   Clear
6:15 AM 10.8 °F 4.5 °F 7.5 °F 87% 30.30 in 10.0 mi NNW 3.5 mph - N/A   Clear
6:35 AM 10.0 °F - 6.8 °F 87% 30.31 in 10.0 mi Calm Calm - N/A   Clear
6:55 AM 10.0 °F 1.8 °F 6.6 °F 86% 30.30 in 10.0 mi North 4.6 mph - N/A   Clear
7:15 AM 10.2 °F 0.6 °F 7.2 °F 87% 30.31 in 10.0 mi North 5.8 mph - N/A   Clear
7:35 AM 12.2 °F 2.9 °F 8.6 °F 85% 30.31 in 10.0 mi North 5.8 mph - N/A   Clear
7:55 AM 14.5 °F 8.8 °F 10.8 °F 85% 30.31 in 10.0 mi NNW 3.5 mph - N/A   Clear
8:15 AM 17.1 °F - 12.9 °F 84% 30.32 in 10.0 mi Calm Calm - N/A   Clear
8:35 AM 20.1 °F - 13.8 °F 77% 30.32 in 10.0 mi Calm Calm - N/A   Clear
8:55 AM 22.6 °F - 16.3 °F 77% 30.32 in 10.0 mi Calm Calm - N/A   Clear
9:15 AM 26.2 °F - 18.1 °F 71% 30.33 in 10.0 mi Calm Calm - N/A   Clear
9:35 AM 30.4 °F - 19.8 °F 65% 30.32 in 10.0 mi Calm Calm - N/A   Clear
9:55 AM 33.1 °F - 20.1 °F 59% 30.31 in 10.0 mi Calm Calm - N/A   Clear
10:15 AM 36.7 °F - 18.0 °F 47% 30.31 in 10.0 mi Calm Calm - N/A   Clear
10:35 AM 38.8 °F - 14.9 °F 38% 30.29 in 10.0 mi Calm Calm - N/A   Clear
10:55 AM 41.2 °F 38.2 °F 17.2 °F 38% 30.28 in 10.0 mi South 4.6 mph - N/A   Clear
11:15 AM 43.5 °F 41.9 °F 17.8 °F 36% 30.26 in 10.0 mi SSE 3.5 mph - N/A   Clear
11:35 AM 46.4 °F - 17.2 °F 31% 30.25 in 10.0 mi Calm Calm - N/A   Clear
11:55 AM 49.6 °F - 14.9 °F 25% 30.23 in 10.0 mi West 9.2 mph - N/A   Clear
12:15 PM 50.0 °F - 14.9 °F 25% 30.22 in 10.0 mi WNW 12.7 mph 16.1 mph N/A   Clear
12:35 PM 50.5 °F - 15.1 °F 24% 30.21 in 10.0 mi NW 10.4 mph - N/A   Clear
12:55 PM 50.9 °F - 14.9 °F 24% 30.20 in 10.0 mi NW 11.5 mph 17.3 mph N/A   Clear
1:15 PM 51.1 °F - 14.9 °F 24% 30.19 in 10.0 mi WNW 9.2 mph - N/A   Clear
1:35 PM 51.1 °F - 14.7 °F 24% 30.18 in 10.0 mi WNW 5.8 mph - N/A   Clear
1:55 PM 51.8 °F - 14.5 °F 23% 30.17 in 10.0 mi WNW 8.1 mph - N/A   Clear
2:15 PM 51.8 °F - 14.0 °F 22% 30.17 in 10.0 mi WNW 11.5 mph - N/A   Clear
2:35 PM 51.4 °F - 14.0 °F 23% 30.17 in 10.0 mi WNW 11.5 mph - N/A   Clear
2:55 PM 51.6 °F - 14.4 °F 23% 30.17 in 10.0 mi West 6.9 mph - N/A   Clear
3:15 PM 51.1 °F - 14.2 °F 23% 30.16 in 10.0 mi West 8.1 mph - N/A   Clear
3:35 PM 50.7 °F - 14.0 °F 23% 30.16 in 10.0 mi West 11.5 mph 17.3 mph N/A   Clear
3:55 PM 50.0 °F - 13.8 °F 24% 30.16 in 10.0 mi West 9.2 mph - N/A   Clear
4:15 PM 48.9 °F - 14.0 °F 25% 30.16 in 10.0 mi West 6.9 mph - N/A   Clear
4:35 PM 46.6 °F - 14.0 °F 27% 30.16 in 10.0 mi West 4.6 mph - N/A   Clear
4:55 PM 43.5 °F 39.4 °F 13.8 °F 30% 30.16 in 10.0 mi West 6.9 mph - N/A   Clear
5:15 PM 42.1 °F 35.2 °F 14.2 °F 32% 30.15 in 10.0 mi West 12.7 mph - N/A   Clear
5:35 PM 40.5 °F 34.6 °F 14.2 °F 34% 30.15 in 10.0 mi West 9.2 mph - N/A   Clear
5:55 PM 39.7 °F 33.2 °F 14.5 °F 36% 30.15 in 10.0 mi West 10.4 mph - N/A   Clear
6:15 PM 39.9 °F 33.4 °F 14.7 °F 36% 30.15 in 10.0 mi West 10.4 mph - N/A   Clear
6:35 PM 32.9 °F 27.5 °F 14.5 °F 47% 30.16 in 10.0 mi ESE 5.8 mph - N/A   Clear
6:55 PM 37.4 °F 34.9 °F 14.5 °F 39% 30.16 in 10.0 mi SE 3.5 mph - N/A   Clear
7:15 PM 36.0 °F 33.3 °F 14.4 °F 41% 30.17 in 10.0 mi East 3.5 mph - N/A   Clear
7:35 PM 30.9 °F 26.2 °F 14.7 °F 51% 30.17 in 10.0 mi SSE 4.6 mph - N/A   Clear
7:55 PM 30.9 °F 22.2 °F 14.9 °F 52% 30.17 in 10.0 mi SSE 10.4 mph - N/A   Clear
8:15 PM 30.9 °F 22.8 °F 14.9 °F 52% 30.17 in 10.0 mi South 9.2 mph - N/A   Clear
8:35 PM 30.2 °F 22.6 °F 15.4 °F 54% 30.17 in 10.0 mi South 8.1 mph - N/A   Clear
8:55 PM 27.7 °F 21.3 °F 15.3 °F 60% 30.17 in 10.0 mi South 5.8 mph - N/A   Clear
9:15 PM 27.7 °F 19.6 °F 15.3 °F 60% 30.16 in 10.0 mi South 8.1 mph - N/A   Clear
9:35 PM 30.2 °F 22.6 °F 15.6 °F 55% 30.17 in 10.0 mi SSW 8.1 mph - N/A   Clear
9:55 PM 27.9 °F 21.5 °F 15.3 °F 59% 30.16 in 10.0 mi South 5.8 mph - N/A   Clear
10:15 PM 28.4 °F 24.6 °F 15.1 °F 57% 30.16 in 10.0 mi South 3.5 mph - N/A   Clear
10:35 PM 30.0 °F 25.2 °F 15.6 °F 55% 30.15 in 10.0 mi South 4.6 mph - N/A   Clear
10:55 PM 28.0 °F 21.7 °F 15.4 °F 59% 30.15 in 10.0 mi SSE 5.8 mph - N/A   Clear
11:15 PM 23.7 °F - 14.9 °F 69% 30.15 in 10.0 mi Calm Calm - N/A   Clear
11:35 PM 24.4 °F - 15.3 °F 68% 30.14 in 10.0 mi Calm Calm - N/A   Clear
11:55 PM 23.9 °F 13.5 °F 16.0 °F 72% 30.14 in 10.0 mi South 10.4 mph - N/A   Clear